Time,TemperatureF,DewpointF,PressureIn,WindDirection,WindDirectionDegrees,WindSpeedMPH,WindSpeedGustMPH,Humidity,HourlyPrecipIn,Conditions,Clouds,dailyrainin,SoftwareType,DateUTC
2013-07-22 00:01:00,63.8,60.5,29.98,West,268,0.0,0.0,89,0.00,,,0.00,Wunderground v.1.15,2013-07-22 04:01:00,
2013-07-22 00:02:00,63.7,60.4,29.98,West,268,0.0,0.0,89,0.00,,,0.00,Wunderground v.1.15,2013-07-22 04:02:00,
2013-07-22 00:05:00,63.6,60.3,29.98,West,268,0.0,0.0,89,0.00,,,0.00,Wunderground v.1.15,2013-07-22 04:05:00,
2013-07-22 00:06:00,63.5,60.2,29.98,West,268,0.0,0.0,89,0.00,,,0.00,Wunderground v.1.15,2013-07-22 04:06:00,
2013-07-22 00:11:00,63.2,59.9,29.99,West,268,0.0,0.0,89,0.00,,,0.00,Wunderground v.1.15,2013-07-22 04:11:00,
2013-07-22 00:16:00,63.0,59.7,29.99,West,268,0.0,0.0,89,0.00,,,0.00,Wunderground v.1.15,2013-07-22 04:16:00,
2013-07-22 00:22:00,62.7,59.4,29.99,West,268,0.0,0.0,89,0.00,,,0.00,Wunderground v.1.15,2013-07-22 04:22:00,
2013-07-22 00:27:00,62.6,59.3,29.99,West,268,0.0,0.0,89,0.00,,,0.00,Wunderground v.1.15,2013-07-22 04:27:00,
2013-07-22 00:32:00,62.5,59.2,29.98,West,268,0.0,0.0,89,0.00,,,0.00,Wunderground v.1.15,2013-07-22 04:32:00,
2013-07-22 00:37:00,62.4,58.8,29.98,West,268,0.0,0.0,88,0.00,,,0.00,Wunderground v.1.15,2013-07-22 04:37:00,
2013-07-22 00:43:00,62.4,58.8,29.98,West,268,0.0,0.0,88,0.00,,,0.00,Wunderground v.1.15,2013-07-22 04:43:00,
2013-07-22 00:48:00,62.3,58.7,29.99,West,268,0.0,0.0,88,0.00,,,0.00,Wunderground v.1.15,2013-07-22 04:48:00,
2013-07-22 00:53:00,62.2,58.6,29.98,West,268,0.0,0.0,88,0.00,,,0.00,Wunderground v.1.15,2013-07-22 04:53:00,
2013-07-22 00:59:00,62.1,58.5,29.98,West,268,0.0,0.0,88,0.00,,,0.00,Wunderground v.1.15,2013-07-22 04:59:00,
2013-07-22 01:05:00,61.9,58.3,29.98,West,268,0.0,0.0,88,0.00,,,0.00,Wunderground v.1.15,2013-07-22 05:05:00,
2013-07-22 01:10:00,61.7,58.1,29.98,West,268,0.0,0.0,88,0.00,,,0.00,Wunderground v.1.15,2013-07-22 05:10:00,
2013-07-22 01:15:00,61.7,58.1,29.98,West,268,0.0,0.0,88,0.00,,,0.00,Wunderground v.1.15,2013-07-22 05:15:00,
2013-07-22 01:20:00,61.6,58.0,29.98,West,268,0.0,0.0,88,0.00,,,0.00,Wunderground v.1.15,2013-07-22 05:20:00,
2013-07-22 01:26:00,61.4,57.8,29.98,West,268,0.0,0.0,88,0.00,,,0.00,Wunderground v.1.15,2013-07-22 05:26:00,
2013-07-22 01:32:00,61.3,57.4,29.97,West,268,0.0,0.0,87,0.00,,,0.00,Wunderground v.1.15,2013-07-22 05:32:00,
2013-07-22 01:38:00,61.1,57.2,29.98,West,268,0.0,0.0,87,0.00,,,0.00,Wunderground v.1.15,2013-07-22 05:38:00,
2013-07-22 01:43:00,61.0,57.1,29.98,West,268,0.0,0.0,87,0.00,,,0.00,Wunderground v.1.15,2013-07-22 05:43:00,
2013-07-22 01:48:00,61.0,57.1,29.98,West,268,0.0,0.0,87,0.00,,,0.00,Wunderground v.1.15,2013-07-22 05:48:00,
2013-07-22 01:54:00,61.0,57.1,29.98,West,268,0.0,0.0,87,0.00,,,0.00,Wunderground v.1.15,2013-07-22 05:54:00,
2013-07-22 01:59:00,61.2,57.0,29.98,West,268,0.0,0.0,86,0.00,,,0.00,Wunderground v.1.15,2013-07-22 05:59:00,
2013-07-22 02:05:00,61.4,57.2,29.99,West,268,0.0,1.0,86,0.00,,,0.00,Wunderground v.1.15,2013-07-22 06:05:00,
2013-07-22 02:10:00,61.6,57.0,29.98,West,268,0.0,0.0,85,0.00,,,0.00,Wunderground v.1.15,2013-07-22 06:10:00,
2013-07-22 02:15:00,61.8,57.2,29.99,West,268,0.0,0.0,85,0.00,,,0.00,Wunderground v.1.15,2013-07-22 06:15:00,
2013-07-22 02:21:00,61.9,57.3,29.98,West,268,0.0,0.0,85,0.00,,,0.00,Wunderground v.1.15,2013-07-22 06:21:00,
2013-07-22 02:27:00,62.0,57.4,29.98,West,268,0.0,0.0,85,0.00,,,0.00,Wunderground v.1.15,2013-07-22 06:27:00,
2013-07-22 02:33:00,62.1,57.5,29.99,West,268,0.0,0.0,85,0.00,,,0.00,Wunderground v.1.15,2013-07-22 06:33:00,
2013-07-22 02:39:00,62.2,57.6,29.98,West,268,0.0,0.0,85,0.00,,,0.00,Wunderground v.1.15,2013-07-22 06:39:00,
2013-07-22 02:45:00,62.2,57.6,29.98,West,268,0.0,0.0,85,0.00,,,0.00,Wunderground v.1.15,2013-07-22 06:45:00,
2013-07-22 02:50:00,62.2,57.6,29.97,West,268,0.0,0.0,85,0.00,,,0.00,Wunderground v.1.15,2013-07-22 06:50:00,
2013-07-22 02:55:00,62.1,57.5,29.97,West,268,0.0,0.0,85,0.00,,,0.00,Wunderground v.1.15,2013-07-22 06:55:00,
2013-07-22 03:01:00,62.0,57.8,29.97,West,268,0.0,0.0,86,0.00,,,0.00,Wunderground v.1.15,2013-07-22 07:01:00,
2013-07-22 03:06:00,61.9,57.7,29.97,West,268,0.0,0.0,86,0.00,,,0.00,Wunderground v.1.15,2013-07-22 07:06:00,
2013-07-22 03:12:00,61.6,57.4,29.97,West,268,0.0,0.0,86,0.00,,,0.00,Wunderground v.1.15,2013-07-22 07:12:00,
2013-07-22 03:18:00,61.4,57.5,29.97,West,268,0.0,0.0,87,0.00,,,0.00,Wunderground v.1.15,2013-07-22 07:18:00,
2013-07-22 03:24:00,61.3,57.4,29.97,West,268,0.0,0.0,87,0.00,,,0.00,Wunderground v.1.15,2013-07-22 07:24:00,
2013-07-22 03:29:00,61.2,57.3,29.97,West,268,0.0,0.0,87,0.00,,,0.00,Wunderground v.1.15,2013-07-22 07:29:00,
2013-07-22 03:35:00,61.1,57.2,29.97,West,268,0.0,0.0,87,0.00,,,0.00,Wunderground v.1.15,2013-07-22 07:35:00,
2013-07-22 03:40:00,60.9,57.0,29.97,West,268,0.0,0.0,87,0.00,,,0.00,Wunderground v.1.15,2013-07-22 07:40:00,
2013-07-22 03:46:00,60.7,56.8,29.97,West,269,0.0,2.0,87,0.00,,,0.00,Wunderground v.1.15,2013-07-22 07:46:00,
2013-07-22 03:52:00,60.8,56.9,29.97,West,269,0.0,0.0,87,0.00,,,0.00,Wunderground v.1.15,2013-07-22 07:52:00,
2013-07-22 03:58:00,60.7,57.1,29.97,West,269,0.0,0.0,88,0.00,,,0.00,Wunderground v.1.15,2013-07-22 07:58:00,
2013-07-22 04:05:00,60.7,57.1,29.97,West,269,0.0,0.0,88,0.00,,,0.00,Wunderground v.1.15,2013-07-22 08:05:00,
2013-07-22 04:10:00,60.7,57.1,29.96,West,270,0.0,0.0,88,0.00,,,0.00,Wunderground v.1.15,2013-07-22 08:10:00,
2013-07-22 04:15:00,60.7,57.1,29.96,West,270,0.0,0.0,88,0.00,,,0.00,Wunderground v.1.15,2013-07-22 08:15:00,
2013-07-22 04:20:00,60.5,56.9,29.97,West,269,0.0,0.0,88,0.00,,,0.00,Wunderground v.1.15,2013-07-22 08:20:00,
2013-07-22 04:26:00,60.3,57.0,29.96,West,270,0.0,0.0,89,0.00,,,0.00,Wunderground v.1.15,2013-07-22 08:26:00,
2013-07-22 04:32:00,60.3,57.0,29.96,North,350,1.0,3.0,89,0.00,,,0.00,Wunderground v.1.15,2013-07-22 08:32:00,
2013-07-22 04:37:00,60.2,56.9,29.96,North,351,1.0,3.0,89,0.00,,,0.00,Wunderground v.1.15,2013-07-22 08:37:00,
2013-07-22 04:43:00,60.1,56.8,29.96,North,351,0.0,1.0,89,0.00,,,0.00,Wunderground v.1.15,2013-07-22 08:43:00,
2013-07-22 04:48:00,60.0,56.7,29.97,North,351,0.0,1.0,89,0.00,,,0.00,Wunderground v.1.15,2013-07-22 08:48:00,
2013-07-22 04:54:00,59.9,56.6,29.97,North,351,0.0,2.0,89,0.00,,,0.00,Wunderground v.1.15,2013-07-22 08:54:00,
2013-07-22 04:59:00,59.9,56.6,29.96,North,351,0.0,1.0,89,0.00,,,0.00,Wunderground v.1.15,2013-07-22 08:59:00,
2013-07-22 05:05:00,59.9,56.6,29.97,North,351,0.0,1.0,89,0.00,,,0.00,Wunderground v.1.15,2013-07-22 09:05:00,
2013-07-22 05:10:00,59.9,56.6,29.97,North,351,0.0,0.0,89,0.00,,,0.00,Wunderground v.1.15,2013-07-22 09:10:00,
2013-07-22 05:15:00,59.8,56.6,29.97,North,351,0.0,0.0,89,0.00,,,0.00,Wunderground v.1.15,2013-07-22 09:15:00,
2013-07-22 05:21:00,59.8,56.6,29.97,North,351,0.0,0.0,89,0.00,,,0.00,Wunderground v.1.15,2013-07-22 09:21:00,
2013-07-22 05:26:00,59.7,56.5,29.97,North,351,0.0,0.0,89,0.00,,,0.00,Wunderground v.1.15,2013-07-22 09:26:00,
2013-07-22 05:31:00,59.6,56.4,29.97,North,351,0.0,0.0,89,0.00,,,0.00,Wunderground v.1.15,2013-07-22 09:31:00,
2013-07-22 05:37:00,59.5,56.3,29.97,North,351,0.0,0.0,89,0.00,,,0.00,Wunderground v.1.15,2013-07-22 09:37:00,
2013-07-22 05:43:00,59.5,56.3,29.97,North,351,0.0,0.0,89,0.00,,,0.00,Wunderground v.1.15,2013-07-22 09:43:00,
2013-07-22 05:48:00,59.4,56.2,29.97,North,351,0.0,0.0,89,0.00,,,0.00,Wunderground v.1.15,2013-07-22 09:48:00,
2013-07-22 05:54:00,59.4,56.2,29.98,North,351,0.0,0.0,89,0.00,,,0.00,Wunderground v.1.15,2013-07-22 09:54:00,
2013-07-22 06:00:00,59.3,56.1,29.98,North,351,0.0,0.0,89,0.00,,,0.00,Wunderground v.1.15,2013-07-22 10:00:00,
2013-07-22 06:06:00,59.3,55.7,29.98,North,351,0.0,0.0,88,0.00,,,0.00,Wunderground v.1.15,2013-07-22 10:06:00,
2013-07-22 06:12:00,59.2,55.6,29.98,North,351,0.0,0.0,88,0.00,,,0.00,Wunderground v.1.15,2013-07-22 10:12:00,
2013-07-22 06:17:00,59.2,55.6,29.98,North,351,0.0,0.0,88,0.00,,,0.00,Wunderground v.1.15,2013-07-22 10:17:00,
2013-07-22 06:22:00,59.2,55.6,29.97,North,351,0.0,0.0,88,0.00,,,0.00,Wunderground v.1.15,2013-07-22 10:22:00,
2013-07-22 06:28:00,59.3,55.7,29.97,North,351,0.0,0.0,88,0.00,,,0.00,Wunderground v.1.15,2013-07-22 10:28:00,
2013-07-22 06:33:00,59.3,55.4,29.97,North,351,0.0,0.0,87,0.00,,,0.00,Wunderground v.1.15,2013-07-22 10:33:00,
2013-07-22 06:39:00,59.6,55.7,29.97,North,351,0.0,0.0,87,0.00,,,0.00,Wunderground v.1.15,2013-07-22 10:39:00,
2013-07-22 06:44:00,59.8,55.9,29.97,North,355,1.0,3.0,87,0.00,,,0.00,Wunderground v.1.15,2013-07-22 10:44:00,
2013-07-22 06:50:00,60.0,56.1,29.98,North,355,1.0,1.0,87,0.00,,,0.00,Wunderground v.1.15,2013-07-22 10:50:00,
2013-07-22 06:55:00,60.2,56.0,29.98,North,355,1.0,1.0,86,0.00,,,0.00,Wunderground v.1.15,2013-07-22 10:55:00,
2013-07-22 07:01:00,60.5,56.3,29.98,North,355,0.0,3.0,86,0.00,,,0.00,Wunderground v.1.15,2013-07-22 11:01:00,
2013-07-22 07:07:00,60.8,56.6,29.98,North,355,0.0,3.0,86,0.00,,,0.00,Wunderground v.1.15,2013-07-22 11:07:00,
2013-07-22 07:12:00,61.1,57.2,29.98,North,355,0.0,0.0,87,0.00,,,0.00,Wunderground v.1.15,2013-07-22 11:12:00,
2013-07-22 07:17:00,61.4,57.5,29.98,North,355,0.0,0.0,87,0.00,,,0.00,Wunderground v.1.15,2013-07-22 11:17:00,
2013-07-22 07:23:00,61.8,57.9,29.98,North,355,0.0,1.0,87,0.00,,,0.00,Wunderground v.1.15,2013-07-22 11:23:00,
2013-07-22 07:29:00,62.2,58.3,29.98,North,355,1.0,1.0,87,0.00,,,0.00,Wunderground v.1.15,2013-07-22 11:29:00,
2013-07-22 07:34:00,62.6,58.7,29.98,North,355,1.0,1.0,87,0.00,,,0.00,Wunderground v.1.15,2013-07-22 11:34:00,
2013-07-22 07:39:00,63.0,59.1,29.98,NNE,13,1.0,2.0,87,0.00,,,0.00,Wunderground v.1.15,2013-07-22 11:39:00,
2013-07-22 07:45:00,63.5,59.9,29.97,NE,42,2.0,3.0,88,0.00,,,0.00,Wunderground v.1.15,2013-07-22 11:45:00,
2013-07-22 07:51:00,64.0,60.7,29.97,NE,41,2.0,3.0,89,0.00,,,0.00,Wunderground v.1.15,2013-07-22 11:51:00,
2013-07-22 07:57:00,64.2,60.9,29.98,NE,42,1.0,4.0,89,0.00,,,0.00,Wunderground v.1.15,2013-07-22 11:57:00,
2013-07-22 08:03:00,64.6,61.3,29.97,NE,43,2.0,3.0,89,0.00,,,0.00,Wunderground v.1.15,2013-07-22 12:03:00,
2013-07-22 08:09:00,65.0,61.7,29.97,NE,45,2.0,2.0,89,0.00,,,0.00,Wunderground v.1.15,2013-07-22 12:09:00,
2013-07-22 08:15:00,65.5,62.2,29.97,NE,52,2.0,5.0,89,0.00,,,0.00,Wunderground v.1.15,2013-07-22 12:15:00,
2013-07-22 08:20:00,65.7,62.0,29.97,NE,36,2.0,2.0,88,0.00,,,0.00,Wunderground v.1.15,2013-07-22 12:20:00,
2013-07-22 08:25:00,66.1,62.4,29.97,NE,41,2.0,3.0,88,0.00,,,0.00,Wunderground v.1.15,2013-07-22 12:25:00,
2013-07-22 08:31:00,66.5,62.8,29.97,NE,51,3.0,5.0,88,0.00,,,0.00,Wunderground v.1.15,2013-07-22 12:31:00,
2013-07-22 08:37:00,67.0,63.0,29.97,ENE,63,3.0,5.0,87,0.00,,,0.00,Wunderground v.1.15,2013-07-22 12:37:00,
2013-07-22 08:42:00,67.3,63.3,29.97,NE,51,3.0,4.0,87,0.00,,,0.00,Wunderground v.1.15,2013-07-22 12:42:00,
2013-07-22 08:48:00,67.6,63.6,29.97,ENE,59,2.0,4.0,87,0.00,,,0.00,Wunderground v.1.15,2013-07-22 12:48:00,
2013-07-22 08:54:00,68.1,63.8,29.97,ENE,65,1.0,3.0,86,0.00,,,0.00,Wunderground v.1.15,2013-07-22 12:54:00,
2013-07-22 08:59:00,68.2,63.5,29.97,NE,50,2.0,2.0,85,0.00,,,0.00,Wunderground v.1.15,2013-07-22 12:59:00,
2013-07-22 09:05:00,68.3,63.6,29.97,NE,44,2.0,3.0,85,0.00,,,0.00,Wunderground v.1.15,2013-07-22 13:05:00,
2013-07-22 09:10:00,68.6,64.2,29.97,NE,46,2.0,3.0,86,0.00,,,0.00,Wunderground v.1.15,2013-07-22 13:10:00,
2013-07-22 09:15:00,68.8,64.1,29.96,ENE,62,3.0,4.0,85,0.00,,,0.00,Wunderground v.1.15,2013-07-22 13:15:00,
2013-07-22 09:20:00,69.0,64.3,29.97,East,87,2.0,4.0,85,0.00,,,0.00,Wunderground v.1.15,2013-07-22 13:20:00,
2013-07-22 09:26:00,69.3,64.6,29.96,NE,44,2.0,7.0,85,0.00,,,0.00,Wunderground v.1.15,2013-07-22 13:26:00,
2013-07-22 09:31:00,69.4,64.4,29.96,NE,49,2.0,3.0,84,0.00,,,0.00,Wunderground v.1.15,2013-07-22 13:31:00,
2013-07-22 09:36:00,69.5,64.5,29.96,ESE,107,1.0,5.0,84,0.00,,,0.00,Wunderground v.1.15,2013-07-22 13:36:00,
2013-07-22 09:42:00,70.0,65.3,29.96,NE,44,2.0,2.0,85,0.00,,,0.00,Wunderground v.1.15,2013-07-22 13:42:00,
2013-07-22 09:48:00,70.6,65.5,29.96,NE,38,2.0,3.0,84,0.00,,,0.00,Wunderground v.1.15,2013-07-22 13:48:00,
2013-07-22 09:53:00,71.0,65.6,29.96,ESE,103,2.0,2.0,83,0.00,,,0.00,Wunderground v.1.15,2013-07-22 13:53:00,
2013-07-22 09:59:00,71.4,66.0,29.95,ESE,109,1.0,3.0,83,0.00,,,0.00,Wunderground v.1.15,2013-07-22 13:59:00,
2013-07-22 10:05:00,71.9,66.5,29.95,SE,129,2.0,5.0,83,0.00,,,0.00,Wunderground v.1.15,2013-07-22 14:05:00,
2013-07-22 10:11:00,71.7,65.6,29.95,NE,46,2.0,2.0,81,0.00,,,0.00,Wunderground v.1.15,2013-07-22 14:11:00,
2013-07-22 10:16:00,71.4,65.3,29.95,NE,38,3.0,4.0,81,0.00,,,0.00,Wunderground v.1.15,2013-07-22 14:16:00,
2013-07-22 10:22:00,71.5,66.1,29.95,SE,138,3.0,4.0,83,0.00,,,0.00,Wunderground v.1.15,2013-07-22 14:22:00,
2013-07-22 10:27:00,71.5,65.7,29.95,SSE,163,2.0,4.0,82,0.00,,,0.00,Wunderground v.1.15,2013-07-22 14:27:00,
2013-07-22 10:33:00,72.1,66.3,29.95,ENE,61,2.0,5.0,82,0.00,,,0.00,Wunderground v.1.15,2013-07-22 14:33:00,
2013-07-22 10:38:00,72.4,66.2,29.95,NE,53,2.0,5.0,81,0.00,,,0.00,Wunderground v.1.15,2013-07-22 14:38:00,
2013-07-22 10:44:00,72.4,66.2,29.95,ESE,113,2.0,3.0,81,0.00,,,0.00,Wunderground v.1.15,2013-07-22 14:44:00,
2013-07-22 10:50:00,72.5,66.3,29.95,SE,144,3.0,3.0,81,0.00,,,0.00,Wunderground v.1.15,2013-07-22 14:50:00,
2013-07-22 10:56:00,72.8,66.6,29.95,SSE,162,2.0,6.0,81,0.00,,,0.00,Wunderground v.1.15,2013-07-22 14:56:00,
2013-07-22 11:01:00,72.6,66.8,29.95,SE,142,2.0,2.0,82,0.00,,,0.00,Wunderground v.1.15,2013-07-22 15:01:00,
2013-07-22 11:07:00,73.3,67.8,29.94,ESE,122,2.0,2.0,83,0.00,,,0.00,Wunderground v.1.15,2013-07-22 15:07:00,
2013-07-22 11:13:00,73.7,67.5,29.94,NE,45,2.0,4.0,81,0.00,,,0.00,Wunderground v.1.15,2013-07-22 15:13:00,
2013-07-22 11:19:00,74.6,68.0,29.94,South,172,2.0,4.0,80,0.00,,,0.00,Wunderground v.1.15,2013-07-22 15:19:00,
2013-07-22 11:24:00,74.8,68.9,29.94,East,80,3.0,10.0,82,0.00,,,0.00,Wunderground v.1.15,2013-07-22 15:24:00,
2013-07-22 11:30:00,75.5,69.3,29.94,ENE,67,5.0,5.0,81,0.00,,,0.00,Wunderground v.1.15,2013-07-22 15:30:00,
2013-07-22 11:35:00,75.5,68.5,29.94,South,175,3.0,5.0,79,0.00,,,0.00,Wunderground v.1.15,2013-07-22 15:35:00,
2013-07-22 11:40:00,75.6,69.4,29.94,East,91,3.0,3.0,81,0.00,,,0.00,Wunderground v.1.15,2013-07-22 15:40:00,
2013-07-22 11:46:00,75.6,69.7,29.93,ENE,65,4.0,6.0,82,0.00,,,0.00,Wunderground v.1.15,2013-07-22 15:46:00,
2013-07-22 11:52:00,76.3,69.7,29.93,NE,34,3.0,5.0,80,0.00,,,0.00,Wunderground v.1.15,2013-07-22 15:52:00,
2013-07-22 11:57:00,76.7,69.3,29.93,East,80,3.0,5.0,78,0.00,,,0.00,Wunderground v.1.15,2013-07-22 15:57:00,
2013-07-22 12:03:00,77.1,69.3,29.93,South,178,3.0,4.0,77,0.00,,,0.00,Wunderground v.1.15,2013-07-22 16:03:00,
2013-07-22 12:08:00,77.1,69.3,29.92,South,178,3.0,4.0,77,0.00,,,0.00,Wunderground v.1.15,2013-07-22 16:08:00,
2013-07-22 12:13:00,77.2,70.5,29.92,NE,46,3.0,6.0,80,0.00,,,0.00,Wunderground v.1.15,2013-07-22 16:13:00,
2013-07-22 12:18:00,77.2,69.8,29.92,NNE,25,3.0,6.0,78,0.00,,,0.00,Wunderground v.1.15,2013-07-22 16:18:00,
2013-07-22 12:24:00,77.1,69.3,29.92,SE,141,3.0,4.0,77,0.00,,,0.00,Wunderground v.1.15,2013-07-22 16:24:00,
2013-07-22 12:30:00,77.8,70.4,29.92,South,170,2.0,2.0,78,0.00,,,0.00,Wunderground v.1.15,2013-07-22 16:30:00,
2013-07-22 12:35:00,77.5,69.7,29.92,South,189,2.0,5.0,77,0.00,,,0.00,Wunderground v.1.15,2013-07-22 16:35:00,
2013-07-22 12:41:00,78.1,69.1,29.92,NE,44,2.0,2.0,74,0.00,,,0.00,Wunderground v.1.15,2013-07-22 16:41:00,
2013-07-22 12:47:00,78.4,71.0,29.91,ENE,69,2.0,4.0,78,0.00,,,0.00,Wunderground v.1.15,2013-07-22 16:47:00,
2013-07-22 12:53:00,79.1,71.3,29.92,SE,132,2.0,5.0,77,0.00,,,0.00,Wunderground v.1.15,2013-07-22 16:53:00,
2013-07-22 12:58:00,79.2,71.0,29.91,SE,141,2.0,5.0,76,0.00,,,0.00,Wunderground v.1.15,2013-07-22 16:58:00,
2013-07-22 13:04:00,78.9,70.7,29.91,NE,40,1.0,4.0,76,0.00,,,0.00,Wunderground v.1.15,2013-07-22 17:04:00,
2013-07-22 13:10:00,79.5,72.0,29.91,NE,49,2.0,2.0,78,0.00,,,0.00,Wunderground v.1.15,2013-07-22 17:10:00,
2013-07-22 13:16:00,79.9,72.4,29.90,ENE,65,2.0,4.0,78,0.00,,,0.00,Wunderground v.1.15,2013-07-22 17:16:00,
2013-07-22 13:21:00,80.1,70.7,29.90,NNW,335,1.0,5.0,73,0.00,,,0.00,Wunderground v.1.15,2013-07-22 17:21:00,
2013-07-22 13:27:00,79.8,71.6,29.90,NE,51,2.0,5.0,76,0.00,,,0.00,Wunderground v.1.15,2013-07-22 17:27:00,
2013-07-22 13:33:00,80.4,72.5,29.90,North,355,2.0,5.0,77,0.00,,,0.00,Wunderground v.1.15,2013-07-22 17:33:00,
2013-07-22 13:39:00,80.9,73.8,29.89,NNE,15,1.0,5.0,79,0.00,,,0.00,Wunderground v.1.15,2013-07-22 17:39:00,
2013-07-22 13:44:00,80.7,70.4,29.89,SSE,165,1.0,3.0,71,0.00,,,0.00,Wunderground v.1.15,2013-07-22 17:44:00,
2013-07-22 13:50:00,80.7,70.4,29.89,South,188,2.0,2.0,71,0.00,,,0.00,Wunderground v.1.15,2013-07-22 17:50:00,
2013-07-22 13:55:00,80.5,71.0,29.88,South,186,1.0,2.0,73,0.00,,,0.00,Wunderground v.1.15,2013-07-22 17:55:00,
2013-07-22 14:01:00,81.1,72.0,29.88,NE,43,1.0,1.0,74,0.00,,,0.00,Wunderground v.1.15,2013-07-22 18:01:00,
2013-07-22 14:06:00,80.9,71.8,29.88,NE,55,2.0,3.0,74,0.00,,,0.00,Wunderground v.1.15,2013-07-22 18:06:00,
2013-07-22 14:12:00,81.0,71.1,29.88,NE,45,2.0,4.0,72,0.00,,,0.00,Wunderground v.1.15,2013-07-22 18:12:00,
2013-07-22 14:17:00,80.7,72.4,29.87,NE,38,2.0,4.0,76,0.00,,,0.00,Wunderground v.1.15,2013-07-22 18:17:00,
2013-07-22 14:23:00,80.9,70.6,29.87,NE,49,1.0,4.0,71,0.00,,,0.00,Wunderground v.1.15,2013-07-22 18:23:00,
2013-07-22 14:29:00,80.8,71.3,29.87,NE,49,1.0,4.0,73,0.00,,,0.00,Wunderground v.1.15,2013-07-22 18:29:00,
2013-07-22 14:35:00,80.4,71.7,29.87,NE,48,0.0,1.0,75,0.00,,,0.00,Wunderground v.1.15,2013-07-22 18:35:00,
2013-07-22 14:41:00,80.1,71.1,29.86,NE,48,0.0,0.0,74,0.00,,,0.00,Wunderground v.1.15,2013-07-22 18:41:00,
2013-07-22 14:46:00,80.2,71.6,29.86,NE,41,1.0,1.0,75,0.00,,,0.00,Wunderground v.1.15,2013-07-22 18:46:00,
2013-07-22 14:52:00,80.0,71.8,29.86,NE,40,1.0,2.0,76,0.00,,,0.00,Wunderground v.1.15,2013-07-22 18:52:00,
2013-07-22 14:58:00,80.2,71.9,29.86,NNE,29,1.0,4.0,76,0.00,,,0.00,Wunderground v.1.15,2013-07-22 18:58:00,
2013-07-22 15:04:00,80.2,72.3,29.86,NE,42,2.0,3.0,77,0.00,,,0.00,Wunderground v.1.15,2013-07-22 19:04:00,
2013-07-22 15:09:00,80.4,72.1,29.86,NE,42,1.0,5.0,76,0.00,,,0.00,Wunderground v.1.15,2013-07-22 19:09:00,
2013-07-22 15:14:00,80.6,71.9,29.86,NE,45,1.0,4.0,75,0.00,,,0.00,Wunderground v.1.15,2013-07-22 19:14:00,
2013-07-22 15:20:00,81.3,71.8,29.86,NE,45,1.0,1.0,73,0.00,,,0.00,Wunderground v.1.15,2013-07-22 19:20:00,
2013-07-22 15:25:00,81.5,72.0,29.86,NE,46,0.0,1.0,73,0.00,,,0.00,Wunderground v.1.15,2013-07-22 19:25:00,
2013-07-22 15:31:00,81.1,71.2,29.85,NE,46,0.0,0.0,72,0.00,,,0.00,Wunderground v.1.15,2013-07-22 19:31:00,
2013-07-22 15:37:00,80.7,72.4,29.85,NE,46,0.0,1.0,76,0.00,,,0.00,Wunderground v.1.15,2013-07-22 19:37:00,
2013-07-22 15:43:00,80.2,71.9,29.85,ENE,76,0.0,1.0,76,0.00,,,0.00,Wunderground v.1.15,2013-07-22 19:43:00,
2013-07-22 15:49:00,79.7,71.8,29.85,SE,132,1.0,4.0,77,0.00,,,0.00,Wunderground v.1.15,2013-07-22 19:49:00,
2013-07-22 15:55:00,78.4,71.3,29.84,SE,136,3.0,5.0,79,0.00,,,0.00,Wunderground v.1.15,2013-07-22 19:55:00,
2013-07-22 16:01:00,77.9,71.6,29.85,SE,144,3.0,3.0,81,0.00,,,0.00,Wunderground v.1.15,2013-07-22 20:01:00,
2013-07-22 16:06:00,77.8,71.1,29.85,SE,142,2.0,4.0,80,0.00,,,0.00,Wunderground v.1.15,2013-07-22 20:06:00,
2013-07-22 16:11:00,77.9,71.6,29.84,SSE,149,1.0,3.0,81,0.00,,,0.00,Wunderground v.1.15,2013-07-22 20:11:00,
2013-07-22 16:17:00,77.7,70.7,29.84,SSE,155,1.0,5.0,79,0.00,,,0.00,Wunderground v.1.15,2013-07-22 20:17:00,
2013-07-22 16:18:00,77.6,70.6,29.84,South,183,1.0,7.0,79,0.00,,,0.00,Wunderground v.1.15,2013-07-22 20:18:00,
2013-07-22 16:20:00,77.4,70.4,29.85,SSE,155,2.0,2.0,79,0.00,,,0.00,Wunderground v.1.15,2013-07-22 20:20:00,
2013-07-22 16:21:00,77.4,70.4,29.85,South,173,2.0,6.0,79,0.00,,,0.00,Wunderground v.1.15,2013-07-22 20:21:00,
2013-07-22 16:26:00,76.9,71.0,29.85,South,182,3.0,7.0,82,0.00,,,0.00,Wunderground v.1.15,2013-07-22 20:26:00,
2013-07-22 16:27:00,76.8,70.9,29.85,SE,134,3.0,7.0,82,0.00,,,0.00,Wunderground v.1.15,2013-07-22 20:27:00,
2013-07-22 16:33:00,76.1,70.2,29.85,South,169,4.0,5.0,82,0.00,,,0.00,Wunderground v.1.15,2013-07-22 20:33:00,
2013-07-22 16:38:00,75.9,70.7,29.85,SSE,157,3.0,5.0,84,0.00,,,0.00,Wunderground v.1.15,2013-07-22 20:38:00,
2013-07-22 16:43:00,75.6,70.4,29.85,SE,139,3.0,6.0,84,0.00,,,0.00,Wunderground v.1.15,2013-07-22 20:43:00,
2013-07-22 16:49:00,75.4,70.9,29.84,SSE,159,2.0,6.0,86,0.00,,,0.00,Wunderground v.1.15,2013-07-22 20:49:00,
2013-07-22 16:54:00,75.1,70.6,29.84,SSE,157,1.0,3.0,86,0.00,,,0.00,Wunderground v.1.15,2013-07-22 20:54:00,
2013-07-22 16:59:00,74.9,70.8,29.84,SSE,157,1.0,3.0,87,0.00,,,0.00,Wunderground v.1.15,2013-07-22 20:59:00,
2013-07-22 17:05:00,74.7,70.6,29.83,SSE,163,1.0,1.0,87,0.00,,,0.00,Wunderground v.1.15,2013-07-22 21:05:00,
2013-07-22 17:11:00,74.7,70.9,29.83,SSE,155,1.0,1.0,88,0.00,,,0.00,Wunderground v.1.15,2013-07-22 21:11:00,
2013-07-22 17:16:00,74.9,71.1,29.83,SSE,156,0.0,2.0,88,0.00,,,0.00,Wunderground v.1.15,2013-07-22 21:16:00,
2013-07-22 17:22:00,75.1,71.3,29.83,SE,140,1.0,2.0,88,0.00,,,0.00,Wunderground v.1.15,2013-07-22 21:22:00,
2013-07-22 17:27:00,75.2,71.4,29.83,SSE,153,1.0,4.0,88,0.00,,,0.00,Wunderground v.1.15,2013-07-22 21:27:00,
2013-07-22 17:33:00,75.4,71.6,29.83,SSE,149,2.0,4.0,88,0.00,,,0.00,Wunderground v.1.15,2013-07-22 21:33:00,
2013-07-22 17:38:00,75.3,71.2,29.84,South,170,2.0,4.0,87,0.00,,,0.00,Wunderground v.1.15,2013-07-22 21:38:00,
2013-07-22 17:43:00,75.3,71.5,29.83,SSE,165,3.0,9.0,88,0.00,,,0.00,Wunderground v.1.15,2013-07-22 21:43:00,
2013-07-22 17:49:00,74.9,70.8,29.83,SSE,155,3.0,9.0,87,0.00,,,0.00,Wunderground v.1.15,2013-07-22 21:49:00,
2013-07-22 17:54:00,74.8,70.7,29.83,SE,141,3.0,4.0,87,0.00,,,0.00,Wunderground v.1.15,2013-07-22 21:54:00,
2013-07-22 18:00:00,74.5,70.4,29.83,SSE,155,2.0,3.0,87,0.00,,,0.00,Wunderground v.1.15,2013-07-22 22:00:00,
2013-07-22 18:05:00,74.5,70.4,29.83,SSE,165,2.0,4.0,87,0.00,,,0.00,Wunderground v.1.15,2013-07-22 22:05:00,
2013-07-22 18:11:00,74.5,70.4,29.83,SE,138,2.0,4.0,87,0.00,,,0.00,Wunderground v.1.15,2013-07-22 22:11:00,
2013-07-22 18:17:00,74.4,70.3,29.83,SE,136,2.0,4.0,87,0.00,,,0.00,Wunderground v.1.15,2013-07-22 22:17:00,
2013-07-22 18:22:00,74.3,70.5,29.83,SE,145,1.0,1.0,88,0.00,,,0.00,Wunderground v.1.15,2013-07-22 22:22:00,
2013-07-22 18:27:00,74.2,70.4,29.83,SSE,155,1.0,2.0,88,0.00,,,0.00,Wunderground v.1.15,2013-07-22 22:27:00,
2013-07-22 18:33:00,74.1,70.3,29.82,SSE,154,1.0,3.0,88,0.00,,,0.00,Wunderground v.1.15,2013-07-22 22:33:00,
2013-07-22 18:38:00,73.9,70.1,29.82,SSE,154,0.0,3.0,88,0.00,,,0.00,Wunderground v.1.15,2013-07-22 22:38:00,
2013-07-22 18:44:00,73.7,69.9,29.82,SSE,154,0.0,0.0,88,0.00,,,0.00,Wunderground v.1.15,2013-07-22 22:44:00,
2013-07-22 18:49:00,73.7,69.9,29.82,SSE,153,0.0,1.0,88,0.00,,,0.00,Wunderground v.1.15,2013-07-22 22:49:00,
2013-07-22 18:55:00,73.7,69.9,29.82,SSE,153,0.0,0.0,88,0.00,,,0.00,Wunderground v.1.15,2013-07-22 22:55:00,
2013-07-22 19:00:00,73.6,69.8,29.82,SSE,153,0.0,0.0,88,0.00,,,0.00,Wunderground v.1.15,2013-07-22 23:00:00,
2013-07-22 19:05:00,73.5,70.1,29.82,NE,52,0.0,2.0,89,0.00,,,0.00,Wunderground v.1.15,2013-07-22 23:05:00,
2013-07-22 19:11:00,73.3,69.9,29.82,SE,132,1.0,1.0,89,0.00,,,0.00,Wunderground v.1.15,2013-07-22 23:11:00,
2013-07-22 19:15:00,73.2,69.8,29.82,SE,132,1.0,2.0,89,0.00,,,0.00,Wunderground v.1.15,2013-07-22 23:15:00,
2013-07-22 19:20:00,73.1,69.3,29.82,SE,132,0.0,0.0,88,0.00,,,0.00,Wunderground v.1.15,2013-07-22 23:20:00,
2013-07-22 19:25:00,73.1,69.3,29.81,SSE,150,0.0,4.0,88,0.00,,,0.00,Wunderground v.1.15,2013-07-22 23:25:00,
2013-07-22 19:31:00,73.0,69.2,29.81,SSE,163,1.0,5.0,88,0.00,,,0.00,Wunderground v.1.15,2013-07-22 23:31:00,
2013-07-22 19:36:00,72.8,69.0,29.81,SSE,161,2.0,5.0,88,0.00,,,0.00,Wunderground v.1.15,2013-07-22 23:36:00,
2013-07-22 19:41:00,72.5,69.1,29.81,SE,142,2.0,4.0,89,0.00,,,0.00,Wunderground v.1.15,2013-07-22 23:41:00,
2013-07-22 19:47:00,72.4,68.6,29.81,SE,132,2.0,4.0,88,0.00,,,0.00,Wunderground v.1.15,2013-07-22 23:47:00,
2013-07-22 19:52:00,72.3,68.9,29.81,SE,141,1.0,1.0,89,0.00,,,0.00,Wunderground v.1.15,2013-07-22 23:52:00,
2013-07-22 19:57:00,72.1,68.7,29.81,SE,141,1.0,2.0,89,0.00,,,0.00,Wunderground v.1.15,2013-07-22 23:57:00,
2013-07-22 20:03:00,72.0,68.6,29.80,NNE,23,1.0,3.0,89,0.00,,,0.00,Wunderground v.1.15,2013-07-23 00:03:00,
2013-07-22 20:08:00,71.9,68.5,29.81,NNE,25,1.0,3.0,89,0.00,,,0.00,Wunderground v.1.15,2013-07-23 00:08:00,
2013-07-22 20:14:00,71.9,68.5,29.80,NE,42,1.0,1.0,89,0.00,,,0.00,Wunderground v.1.15,2013-07-23 00:14:00,
2013-07-22 20:19:00,71.9,68.5,29.81,NE,42,0.0,1.0,89,0.00,,,0.00,Wunderground v.1.15,2013-07-23 00:19:00,
2013-07-22 20:24:00,71.9,68.5,29.81,NE,42,0.0,0.0,89,0.00,,,0.00,Wunderground v.1.15,2013-07-23 00:24:00,
2013-07-22 20:30:00,71.8,68.4,29.81,NE,42,0.0,0.0,89,0.00,,,0.00,Wunderground v.1.15,2013-07-23 00:30:00,
2013-07-22 20:35:00,71.7,68.0,29.81,NE,42,0.0,0.0,88,0.00,,,0.00,Wunderground v.1.15,2013-07-23 00:35:00,
2013-07-22 20:41:00,71.6,67.9,29.81,NE,42,0.0,0.0,88,0.00,,,0.00,Wunderground v.1.15,2013-07-23 00:41:00,
2013-07-22 20:46:00,71.5,67.8,29.81,NE,42,0.0,1.0,88,0.00,,,0.00,Wunderground v.1.15,2013-07-23 00:46:00,
2013-07-22 20:51:00,71.3,67.6,29.81,NE,42,0.0,0.0,88,0.00,,,0.00,Wunderground v.1.15,2013-07-23 00:51:00,
2013-07-22 20:57:00,71.2,67.5,29.81,NE,42,0.0,0.0,88,0.00,,,0.00,Wunderground v.1.15,2013-07-23 00:57:00,
2013-07-22 21:02:00,71.2,67.5,29.81,NE,42,0.0,0.0,88,0.00,,,0.00,Wunderground v.1.15,2013-07-23 01:02:00,
2013-07-22 21:08:00,71.0,67.3,29.82,NE,47,0.0,2.0,88,0.00,,,0.00,Wunderground v.1.15,2013-07-23 01:08:00,
2013-07-22 21:10:00,71.0,67.3,29.82,NE,47,0.0,0.0,88,0.00,,,0.00,Wunderground v.1.15,2013-07-23 01:10:00,
2013-07-22 21:15:00,70.9,67.2,29.82,NE,47,0.0,0.0,88,0.00,,,0.00,Wunderground v.1.15,2013-07-23 01:15:00,
2013-07-22 21:20:00,70.8,67.1,29.82,NE,47,0.0,0.0,88,0.00,,,0.00,Wunderground v.1.15,2013-07-23 01:20:00,
2013-07-22 21:25:00,70.7,67.0,29.82,NE,49,0.0,2.0,88,0.00,,,0.00,Wunderground v.1.15,2013-07-23 01:25:00,
2013-07-22 21:31:00,70.5,66.8,29.82,NE,49,0.0,0.0,88,0.00,,,0.00,Wunderground v.1.15,2013-07-23 01:31:00,
2013-07-22 21:36:00,70.4,66.3,29.82,NE,49,0.0,1.0,87,0.00,,,0.00,Wunderground v.1.15,2013-07-23 01:36:00,
2013-07-22 21:42:00,70.3,66.2,29.82,ENE,63,0.0,0.0,87,0.00,,,0.00,Wunderground v.1.15,2013-07-23 01:42:00,
2013-07-22 21:47:00,70.3,66.2,29.82,ENE,63,0.0,0.0,87,0.00,,,0.01,Wunderground v.1.15,2013-07-23 01:47:00,
2013-07-22 21:53:00,70.3,66.2,29.81,ENE,63,0.0,0.0,87,0.00,,,0.01,Wunderground v.1.15,2013-07-23 01:53:00,
2013-07-22 21:59:00,70.2,65.8,29.81,ENE,77,0.0,3.0,86,0.00,,,0.01,Wunderground v.1.15,2013-07-23 01:59:00,
2013-07-22 22:04:00,70.2,65.8,29.81,East,79,1.0,2.0,86,0.00,,,0.01,Wunderground v.1.15,2013-07-23 02:04:00,
2013-07-22 22:09:00,70.0,65.6,29.81,East,79,0.0,0.0,86,0.00,,,0.01,Wunderground v.1.15,2013-07-23 02:09:00,
2013-07-22 22:15:00,69.9,65.5,29.81,East,80,0.0,1.0,86,0.00,,,0.01,Wunderground v.1.15,2013-07-23 02:15:00,
2013-07-22 22:20:00,69.8,65.4,29.81,East,85,0.0,2.0,86,0.00,,,0.01,Wunderground v.1.15,2013-07-23 02:20:00,
2013-07-22 22:26:00,69.6,65.6,29.81,East,85,0.0,2.0,87,0.00,,,0.01,Wunderground v.1.15,2013-07-23 02:26:00,
2013-07-22 22:32:00,69.6,65.6,29.81,East,85,0.0,0.0,87,0.00,,,0.02,Wunderground v.1.15,2013-07-23 02:32:00,
2013-07-22 22:38:00,69.5,65.5,29.81,East,85,0.0,1.0,87,0.00,,,0.02,Wunderground v.1.15,2013-07-23 02:38:00,
2013-07-22 22:43:00,69.5,65.1,29.81,East,85,0.0,1.0,86,0.00,,,0.02,Wunderground v.1.15,2013-07-23 02:43:00,
2013-07-22 22:49:00,69.5,65.1,29.80,East,85,0.0,1.0,86,0.00,,,0.02,Wunderground v.1.15,2013-07-23 02:49:00,
2013-07-22 22:54:00,69.4,65.0,29.80,East,85,0.0,0.0,86,0.00,,,0.03,Wunderground v.1.15,2013-07-23 02:54:00,
2013-07-22 22:59:00,69.3,64.9,29.80,East,85,0.0,0.0,86,0.00,,,0.03,Wunderground v.1.15,2013-07-23 02:59:00,
2013-07-22 23:05:00,69.2,64.8,29.80,East,85,0.0,0.0,86,0.05,,,0.04,Wunderground v.1.15,2013-07-23 03:05:00,
2013-07-22 23:10:00,69.2,64.8,29.80,East,85,0.0,0.0,86,0.05,,,0.04,Wunderground v.1.15,2013-07-23 03:10:00,
2013-07-22 23:16:00,69.1,64.7,29.80,East,85,0.0,0.0,86,0.04,,,0.04,Wunderground v.1.15,2013-07-23 03:16:00,
2013-07-22 23:21:00,69.1,64.7,29.80,East,85,0.0,0.0,86,0.00,,,0.04,Wunderground v.1.15,2013-07-23 03:21:00,
2013-07-22 23:26:00,69.0,64.3,29.79,East,87,0.0,2.0,85,0.00,,,0.04,Wunderground v.1.15,2013-07-23 03:26:00,
2013-07-22 23:32:00,69.0,64.3,29.79,East,97,1.0,1.0,85,0.00,,,0.04,Wunderground v.1.15,2013-07-23 03:32:00,
2013-07-22 23:37:00,69.0,64.3,29.79,East,97,0.0,1.0,85,0.00,,,0.04,Wunderground v.1.15,2013-07-23 03:37:00,
2013-07-22 23:43:00,69.0,64.3,29.79,East,97,0.0,0.0,85,0.00,,,0.04,Wunderground v.1.15,2013-07-23 03:43:00,
2013-07-22 23:48:00,69.0,64.3,29.78,East,97,0.0,0.0,85,0.00,,,0.04,Wunderground v.1.15,2013-07-23 03:48:00,
2013-07-22 23:53:00,68.9,64.2,29.78,East,97,0.0,0.0,85,0.00,,,0.04,Wunderground v.1.15,2013-07-23 03:53:00,
2013-07-22 23:59:00,68.9,64.2,29.78,East,97,0.0,0.0,85,0.00,,,0.04,Wunderground v.1.15,2013-07-23 03:59:00,